TimeEST,TemperatureF,Dew PointF,Humidity,Sea Level PressureIn,VisibilityMPH,Wind Direction,Wind SpeedMPH,Gust SpeedMPH,PrecipitationIn,Events,Conditions,WindDirDegrees,DateUTC
12:55 AM,71.1,70.9,99,30.01,10.0,SSE,5.8,-,N/A,,Clear,160,2012-12-29 05:55:00
1:55 AM,72.1,72.0,99,29.99,10.0,SSE,6.9,-,N/A,,Clear,150,2012-12-29 06:55:00
2:55 AM,72.3,72.0,99,29.97,10.0,South,5.8,-,N/A,,Clear,170,2012-12-29 07:55:00
4:55 AM,69.8,69.8,100,29.98,10.0,Calm,Calm,-,N/A,,Clear,0,2012-12-29 09:55:00
5:55 AM,70.2,69.8,99,30.00,10.0,Calm,Calm,-,N/A,,Clear,0,2012-12-29 10:55:00
6:36 AM,69.8,69.8,100,30.01,1.8,Calm,Calm,-,N/A,,Clear,0,2012-12-29 11:36:00
6:37 AM,69.8,69.8,100,30.01,1.2,Calm,Calm,-,N/A,,Clear,0,2012-12-29 11:37:00
6:40 AM,69.8,68.0,94,30.01,0.8,Calm,Calm,-,N/A,,Clear,0,2012-12-29 11:40:00
6:55 AM,69.3,69.1,99,30.02,3.0,Calm,Calm,-,N/A,Fog,Shallow Fog,0,2012-12-29 11:55:00
7:55 AM,71.1,70.9,99,30.04,10.0,Calm,Calm,-,N/A,,Clear,0,2012-12-29 12:55:00
8:55 AM,74.5,74.1,99,30.06,10.0,South,5.8,-,N/A,,Clear,180,2012-12-29 13:55:00
9:55 AM,78.8,73.6,84,30.06,10.0,South,12.7,-,N/A,,Clear,190,2012-12-29 14:55:00
10:55 AM,79.3,72.3,79,30.06,10.0,SW,12.7,-,N/A,,Clear,220,2012-12-29 15:55:00
11:55 AM,81.3,72.7,75,30.04,10.0,SW,12.7,20.7,N/A,,Partly Cloudy,220,2012-12-29 16:55:00
12:55 PM,80.6,73.2,78,30.01,10.0,SW,10.4,18.4,N/A,,Partly Cloudy,220,2012-12-29 17:55:00
1:55 PM,82.6,73.2,73,29.99,10.0,WSW,12.7,23.0,N/A,,Partly Cloudy,240,2012-12-29 18:55:00
2:55 PM,82.6,70.7,67,29.98,10.0,West,15.0,-,N/A,,Clear,260,2012-12-29 19:55:00
3:55 PM,81.7,69.6,67,29.98,10.0,West,15.0,-,N/A,,Clear,260,2012-12-29 20:55:00
4:55 PM,79.5,70.0,72,29.98,10.0,SW,11.5,-,N/A,,Clear,230,2012-12-29 21:55:00
5:44 PM,77.0,69.8,78,30.01,10.0,WSW,8.1,-,N/A,,Mostly Cloudy,240,2012-12-29 22:44:00
5:55 PM,77.4,69.6,77,30.01,10.0,WSW,10.4,-,N/A,,Mostly Cloudy,250,2012-12-29 22:55:00
6:07 PM,77.0,69.8,78,30.01,10.0,WSW,8.1,-,N/A,,Scattered Clouds,240,2012-12-29 23:07:00
6:55 PM,76.1,70.0,81,30.02,10.0,WSW,10.4,-,N/A,,Scattered Clouds,240,2012-12-29 23:55:00
7:55 PM,75.6,70.9,85,30.04,10.0,West,9.2,-,N/A,,Partly Cloudy,270,2012-12-30 00:55:00
8:55 PM,74.1,70.0,87,30.07,10.0,WNW,11.5,-,N/A,,Scattered Clouds,290,2012-12-30 01:55:00
9:13 PM,73.4,69.8,88,30.08,10.0,WNW,10.4,-,N/A,,Light Drizzle,290,2012-12-30 02:13:00
9:25 PM,73.4,69.8,88,30.07,10.0,West,8.1,-,N/A,,Mostly Cloudy,280,2012-12-30 02:25:00
9:55 PM,72.5,69.1,89,30.08,10.0,West,11.5,-,0.00,,Scattered Clouds,280,2012-12-30 02:55:00
10:55 PM,69.1,61.9,78,30.10,10.0,WNW,10.4,-,N/A,,Clear,300,2012-12-30 03:55:00
11:55 PM,66.0,61.3,85,30.12,10.0,NW,12.7,-,N/A,,Clear,320,2012-12-30 04:55:00